Wetbulb
48.89 49.04 48.57 48.68 48.62 48.77 46.21 37.48 31.40 40.74 45.09 35.17 32.54 25.08 34.26 38.04 36.39 38.84 37.25 36.31 35.14 33.06 33.09 31.61 31.46 31.65 34.79 39.86 38.72 33.93 38.58 36.31 30.91 33.32 40.08 41.64 39.83 37.41 38.73 32.10 31.41 35.41 34.80 33.25
48.67 48.61 48.65 48.46 48.49 48.07 39.62 32.41 31.61 41.79 43.35 27.60 31.01 35.54 32.87 34.92 34.34 35.54 35.49 34.30 36.04 35.52 32.44 29.69 32.73 34.21 39.19 40.10 38.49 35.02 36.93 31.79 23.92 27.51 32.09 38.77 37.14 38.11 39.60 38.34 36.42 31.90 29.83 33.62
48.53 48.61 48.56 48.50 48.54 48.84 41.80 34.96 24.81 33.58 39.44 39.38 32.70 31.24 32.32 32.99 38.16 36.15 37.13 35.67 36.53 34.36 32.08 34.44 31.87 33.01 37.82 39.83 39.03 43.27 41.24 34.03 29.21 23.48 28.18 32.84 30.56 33.92 37.09 36.57 29.13 29.39 30.62 31.58
48.26 48.26 48.46 48.38 48.11 48.31 39.90 36.82 31.35 34.67 28.73 30.40 34.22 35.32 34.10 31.46 31.63 37.08 38.00 34.81 33.93 32.63 29.41 29.79 29.64 32.98 34.90 37.94 40.28 38.08 36.19 28.81 31.57 32.64 33.34 33.46 33.09 32.66 33.56 32.46 33.51 30.51 32.52 33.58
47.97 48.01 48.03 47.85 47.92 47.24 37.61 33.22 32.09 35.30 34.30 35.11 31.90 31.61 31.31 30.62 33.00 34.17 33.22 32.18 34.15 34.68 31.52 31.96 29.61 32.82 33.00 32.27 36.28 34.69 35.61 28.49 31.19 29.18 32.82 32.55 30.38 32.92 33.32 33.61 34.68 35.30 35.77 35.04
48.04 48.11 47.95 47.87 47.64 44.19 34.26 35.94 36.74 36.70 31.55 30.10 28.65 27.12 31.44 32.04 33.91 34.77 36.11 34.84 33.69 32.39 34.05 36.99 37.70 38.85 38.01 37.00 34.52 33.10 32.14 29.81 27.44 24.57 30.84 29.91 24.80 30.01 32.01 34.09 36.27 35.87 32.45 36.36
47.82 47.80 47.61 47.58 47.54 44.59 37.12 36.66 35.62 31.67 26.97 28.69 29.04 31.58 32.51 31.86 32.94 32.06 35.60 36.08 34.01 37.47 41.76 40.40 38.81 38.02 37.01 36.51 35.80 36.33 32.16 30.04 29.42 26.05 28.20 18.76 29.61 35.97 35.71 34.02 35.73 37.17 37.77 39.18
47.53 47.33 47.38 47.32 47.40 46.85 40.00 37.33 35.77 34.09 27.11 30.08 30.30 30.62 30.78 32.09 32.94 31.41 32.96 35.90 39.46 42.00 39.39 33.23 29.19 22.76 26.22 29.93 35.24 34.52 35.46 31.60 26.12 24.27 22.97 27.07 30.36 33.63 33.02 31.44 31.80 37.78 36.70 38.88
46.94 47.05 47.10 47.10 47.12 47.24 40.34 38.64 39.20 37.32 29.98 27.63 32.34 29.99 31.58 29.42 28.26 29.26 32.21 37.71 39.75 37.36 33.17 30.62 25.55 20.05 21.36 21.00 29.19 36.19 34.94 34.15 29.46 19.99 21.75 16.22 29.24 35.54 36.96 36.07 25.89 36.75 37.60 37.51
46.45 46.70 46.56 46.50 46.82 47.01 41.73 38.56 41.04 38.66 31.51 34.27 34.75 30.55 29.17 32.40 30.78 29.84 30.77 32.51 32.89 37.90 28.95 24.21 23.53 23.48 29.81 22.59 23.97 20.10 25.63 24.79 26.69 26.19 24.15 27.56 34.90 37.42 37.82 25.32 27.67 38.37 41.15 40.95
46.01 46.08 46.12 46.15 46.31 46.43 43.59 39.04 41.48 38.79 33.70 34.99 37.38 36.68 33.18 32.70 31.79 29.45 31.82 29.81 28.31 25.79 23.05 22.30 22.11 27.48 28.21 27.93 30.07 27.44 23.84 21.66 21.92 24.62 23.59 20.92 37.45 35.82 30.22 35.62 39.37 38.48 39.70 40.24
45.44 45.65 45.61 45.66 45.82 46.03 45.47 39.18 43.96 44.49 37.79 35.91 41.11 40.34 40.88 38.86 37.43 33.73 32.54 33.71 34.31 36.02 32.61 30.75 26.63 25.15 25.25 26.29 22.82 32.14 24.60 29.28 26.58 27.16 25.17 34.74 36.51 36.31 38.65 38.85 38.62 38.73 38.73 40.07
44.78 44.93 45.02 44.75 44.97 45.11 44.81 41.54 43.01 42.27 37.43 36.45 37.70 36.58 41.13 42.52 41.92 42.36 32.64 34.13 35.62 34.94 38.23 34.78 33.29 28.57 29.52 26.89 27.26 29.13 31.11 34.26 28.63 30.11 33.72 35.56 37.61 39.20 39.88 40.36 39.82 41.20 41.85 41.88
43.99 44.34 44.72 44.81 44.87 45.26 45.09 41.74 43.64 42.15 37.38 30.50 34.45 41.13 39.77 43.21 42.53 41.41 41.30 38.70 40.18 39.59 38.25 32.98 31.69 29.35 35.74 30.43 31.84 29.98 31.42 32.53 31.03 31.25 34.74 36.59 37.82 38.96 39.54 39.82 40.48 40.63 41.61 41.21
43.07 43.83 43.68 43.97 44.59 45.46 45.50 44.47 44.50 45.17 39.67 32.16 33.14 39.05 40.42 41.33 41.64 40.61 40.56 39.58 38.10 36.47 33.29 31.59 31.05 34.66 33.97 34.63 34.39 31.40 35.41 32.94 29.43 29.03 35.15 33.82 36.19 38.63 39.87 39.51 40.14 41.39 40.40 40.32
42.30 43.44 43.31 43.79 44.90 45.72 42.58 38.65 45.13 46.97 46.41 36.15 30.64 38.91 36.98 40.65 40.41 39.19 38.29 39.45 38.53 38.13 32.72 32.85 35.45 38.51 34.96 30.10 28.70 34.80 36.81 37.77 37.98 35.61 39.40 38.58 39.38 40.66 41.19 39.69 40.44 40.75 40.53 40.75
42.06 43.36 43.87 44.50 45.17 44.08 39.95 36.36 43.02 46.40 46.36 33.37 31.03 31.35 35.86 38.77 40.76 39.54 39.57 40.34 39.26 37.86 33.44 31.75 33.46 34.60 35.72 31.59 29.17 35.20 36.58 38.38 38.08 39.33 38.89 36.44 38.69 37.11 39.15 39.10 39.40 40.13 41.37 42.61
42.33 43.56 43.98 44.80 44.89 44.20 41.98 44.92 46.90 46.47 40.95 38.22 31.41 29.92 28.31 39.71 34.15 33.44 37.37 33.44 33.99 32.90 33.08 32.90 32.12 32.36 34.42 29.92 33.25 35.97 37.32 37.04 37.68 38.32 39.12 38.37 39.39 39.56 39.38 40.14 39.78 38.47 38.96 41.56
42.74 43.52 43.97 43.70 42.55 38.16 40.86 45.76 46.79 46.07 40.13 32.10 31.57 25.26 21.29 38.38 34.12 34.62 34.24 35.72 30.27 33.34 31.17 31.56 32.25 25.81 27.17 31.57 32.89 33.34 34.84 34.40 35.70 38.03 38.51 38.09 36.35 37.07 38.64 38.79 38.37 37.30 38.12 38.67
42.91 40.09 36.28 31.80 37.75 44.01 44.97 42.43 37.58 36.69 36.89 38.45 32.81 31.33 30.38 35.18 33.46 31.44 30.43 32.07 29.43 27.56 28.85 33.24 30.02 26.42 33.02 35.09 36.34 36.74 37.21 39.19 38.76 35.06 34.86 36.44 36.51 37.20 37.89 39.11 39.71 39.39 39.76 39.12
37.39 32.36 31.57 37.82 42.77 40.10 36.69 32.36 31.92 32.48 30.25 33.82 33.59 30.70 30.17 33.68 27.64 28.78 30.75 28.94 29.31 24.47 25.16 26.09 28.18 27.41 30.97 35.02 35.03 37.02 37.11 37.40 37.01 36.97 37.06 37.43 37.73 37.25 37.97 39.88 39.66 40.64 40.73 39.16
37.57 36.91 37.90 36.16 33.08 31.42 30.44 29.60 31.19 31.12 27.75 29.17 30.59 28.49 29.54 28.32 33.04 26.46 28.77 27.84 25.60 24.23 31.88 28.81 26.01 29.50 33.38 34.14 36.01 36.87 37.13 35.71 35.59 35.82 36.52 36.34 39.54 39.53 39.04 37.24 37.21 36.73 35.99 34.56
39.62 35.09 31.00 30.30 30.41 26.17 25.73 23.29 27.74 26.82 28.39 32.60 28.83 31.77 33.08 33.34 30.57 29.46 27.96 22.94 22.06 30.83 28.06 24.51 24.10 30.93 33.88 33.91 34.00 33.79 34.77 34.69 33.95 35.58 35.00 34.80 34.19 34.56 34.76 32.98 33.34 32.74 31.41 31.69
31.93 29.10 25.21 26.68 25.35 26.36 29.63 27.41 27.78 29.88 29.68 33.53 31.63 27.77 29.18 31.72 30.04 29.52 25.71 26.30 27.61 19.78 16.83 19.77 26.22 31.27 32.22 32.02 32.01 32.09 32.30 32.13 32.66 33.19 33.28 32.04 31.17 30.45 30.99 31.20 31.42 31.04 30.39 31.11
29.86 31.21 25.37 26.00 29.20 32.29 31.42 33.68 32.32 32.98 35.49 33.86 32.36 32.59 29.00 28.46 28.32 29.91 28.23 24.87 23.30 21.49 18.17 23.47 29.91 31.31 31.42 30.14 30.45 31.47 31.38 30.99 30.42 30.86 30.10 29.91 30.00 29.68 29.85 31.20 31.56 31.47 30.72 30.15
31.93 32.60 29.15 31.51 31.50 32.22 31.62 30.84 32.11 34.82 33.46 34.26 33.02 30.37 28.00 27.06 28.17 25.34 24.18 23.89 19.44 21.87 27.67 29.50 30.33 31.16 31.38 29.92 31.35 31.20 31.26 31.06 30.64 30.67 30.82 30.56 30.15 30.00 29.88 30.28 30.10 29.96 29.47 28.43
32.10 28.31 30.93 30.79 28.77 30.52 31.27 31.90 30.46 34.65 32.84 30.01 30.22 26.91 27.14 29.92 27.36 26.45 26.90 22.53 27.85 29.94 30.18 29.75 31.06 30.33 29.62 30.77 30.68 29.94 30.12 30.07 30.63 30.81 30.57 30.22 30.10 29.31 27.88 26.09 26.81 27.04 26.98 26.33
MSLP
1017.40 1017.72 1018.06 1018.35 1018.63 1018.79 1019.12 1019.70 1019.89 1018.95 1018.57 1019.74 1019.99 1020.24 1019.69 1019.11 1018.13 1017.65 1017.90 1017.34 1017.19 1017.03 1017.10 1016.76 1016.45 1015.80 1015.56 1014.61 1014.81 1014.33 1014.06 1013.70 1012.88 1012.17 1011.92 1011.12 1011.31 1011.22 1011.53 1012.23 1012.46 1011.61 1010.09 1007.26
1017.22 1017.60 1017.91 1018.20 1018.51 1018.76 1019.41 1019.93 1019.85 1019.13 1018.81 1019.70 1019.98 1019.91 1019.65 1019.52 1018.93 1018.35 1018.13 1017.95 1017.74 1017.95 1018.42 1018.41 1017.03 1016.17 1015.72 1015.34 1015.76 1015.40 1015.12 1014.48 1013.86 1012.47 1012.33 1011.85 1012.01 1012.15 1012.56 1013.11 1013.62 1012.52 1011.03 1008.05
1016.99 1017.44 1017.76 1018.10 1018.37 1018.59 1019.24 1019.79 1020.32 1020.21 1019.64 1019.31 1019.49 1019.78 1019.65 1019.40 1018.89 1018.56 1018.31 1017.98 1018.43 1018.91 1018.61 1018.61 1017.76 1017.13 1016.43 1015.83 1015.64 1015.69 1015.31 1014.78 1014.67 1013.64 1013.45 1013.50 1013.09 1012.43 1012.62 1012.94 1012.82 1011.80 1010.75 1008.86
1016.62 1017.09 1017.54 1017.84 1018.23 1018.56 1019.29 1019.78 1020.03 1019.82 1019.91 1019.83 1019.54 1019.62 1019.31 1018.75 1018.57 1018.31 1018.25 1018.11 1018.36 1018.74 1018.83 1018.37 1017.67 1016.98 1016.43 1015.93 1015.61 1015.42 1015.65 1015.33 1015.01 1013.94 1013.98 1013.86 1013.39 1012.69 1012.17 1012.38 1011.63 1011.47 1009.25 1009.21
1016.35 1016.75 1017.16 1017.68 1018.12 1018.51 1019.35 1019.58 1019.95 1019.80 1019.70 1019.42 1019.65 1019.51 1018.86 1018.62 1018.33 1018.28 1017.90 1017.79 1017.90 1018.31 1018.34 1017.85 1017.18 1016.94 1016.61 1016.25 1015.71 1015.72 1015.49 1015.27 1015.23 1014.13 1014.04 1013.51 1012.70 1011.55 1011.26 1011.13 1010.37 1010.25 1009.33 1007.45
1015.99 1016.44 1016.91 1017.39 1017.92 1018.39 1019.25 1019.42 1019.45 1019.63 1019.58 1019.40 1019.52 1019.11 1018.49 1017.99 1018.04 1017.77 1017.32 1017.52 1017.67 1017.61 1016.93 1016.78 1016.63 1016.11 1015.95 1015.81 1015.76 1015.88 1016.05 1015.96 1015.81 1014.20 1014.38 1013.27 1011.87 1009.98 1010.04 1009.35 1009.04 1008.64 1007.46 1006.25
1015.63 1016.13 1016.62 1017.09 1017.55 1017.96 1018.71 1018.97 1019.25 1019.79 1019.23 1019.23 1018.95 1018.55 1018.21 1017.87 1017.75 1017.55 1017.04 1017.02 1016.76 1016.14 1016.28 1016.22 1015.93 1015.57 1015.30 1015.03 1014.83 1015.11 1015.36 1015.73 1015.85 1014.78 1014.70 1012.79 1009.70 1009.18 1008.81 1008.31 1007.59 1007.35 1006.79 1005.50
1015.26 1015.71 1016.23 1016.74 1017.15 1017.59 1018.40 1018.67 1019.07 1019.15 1018.75 1018.68 1018.48 1018.24 1017.94 1017.50 1017.44 1017.37 1017.08 1016.58 1016.38 1016.13 1016.53 1016.43 1015.98 1015.60 1015.36 1014.28 1013.47 1013.43 1013.78 1014.52 1014.92 1014.75 1013.65 1011.34 1009.73 1007.89 1007.77 1007.40 1006.30 1006.32 1005.75 1005.00
1014.89 1015.30 1015.79 1016.29 1016.72 1017.07 1017.92 1018.19 1018.57 1018.99 1018.79 1017.79 1018.00 1017.81 1017.45 1017.12 1017.03 1016.99 1016.42 1015.89 1015.27 1015.61 1016.13 1016.56 1015.88 1015.68 1015.17 1014.31 1012.94 1012.23 1012.73 1013.41 1014.43 1013.96 1012.72 1010.65 1008.17 1006.12 1006.81 1006.95 1006.24 1005.14 1005.05 1004.52
1014.51 1014.95 1015.31 1015.72 1016.11 1016.48 1017.22 1017.58 1017.86 1018.40 1017.68 1017.10 1017.28 1016.88 1016.59 1016.76 1016.63 1016.31 1015.75 1015.26 1015.18 1015.31 1016.09 1016.09 1016.08 1015.50 1014.94 1013.91 1012.83 1012.54 1012.51 1013.11 1013.10 1012.54 1011.54 1009.22 1006.65 1005.88 1006.77 1006.80 1004.82 1003.34 1003.83 1003.79
1014.17 1014.53 1014.85 1015.20 1015.48 1015.86 1016.57 1016.57 1017.07 1017.63 1016.70 1015.91 1016.06 1015.54 1015.82 1015.76 1015.83 1015.69 1015.41 1015.32 1014.99 1015.14 1015.32 1015.40 1015.16 1014.69 1013.57 1012.77 1011.73 1011.02 1011.21 1011.74 1011.71 1011.32 1010.25 1008.08 1005.44 1005.73 1005.88 1003.73 1003.49 1003.54 1003.40 1003.15
1013.83 1014.11 1014.41 1014.68 1014.95 1015.17 1015.77 1016.04 1015.77 1016.07 1015.58 1014.39 1014.12 1014.07 1013.82 1014.11 1013.79 1014.59 1014.90 1014.90 1014.48 1013.87 1014.11 1014.18 1013.94 1013.48 1012.86 1011.64 1010.72 1009.26 1009.95 1008.74 1008.44 1008.56 1006.72 1005.08 1004.28 1003.66 1003.29 1003.42 1003.44 1002.98 1002.96 1002.30
1013.34 1013.63 1013.86 1014.13 1014.26 1014.45 1014.91 1015.01 1015.03 1014.96 1014.29 1013.39 1012.90 1011.96 1012.07 1012.23 1012.56 1013.09 1013.91 1013.52 1013.22 1013.18 1012.94 1013.43 1013.36 1013.01 1012.48 1011.53 1009.77 1009.46 1008.08 1007.37 1007.50 1007.06 1004.94 1004.03 1003.89 1003.39 1002.92 1002.75 1002.39 1001.88 1001.56 1001.27
1012.87 1013.07 1013.28 1013.36 1013.48 1013.70 1013.92 1013.95 1013.78 1013.92 1013.38 1012.03 1010.60 1010.29 1010.36 1010.13 1011.21 1011.46 1011.38 1011.07 1012.22 1012.49 1013.00 1012.89 1012.49 1012.18 1011.25 1010.05 1009.04 1008.35 1006.69 1006.55 1005.70 1005.34 1003.49 1003.32 1003.12 1002.56 1001.97 1001.43 1001.19 1001.07 1000.62 1000.23
1012.44 1012.39 1012.48 1012.51 1012.65 1012.64 1012.68 1012.38 1011.84 1011.91 1011.90 1010.51 1010.26 1009.90 1009.05 1008.95 1009.38 1009.76 1010.20 1010.84 1011.32 1011.73 1012.06 1011.85 1011.23 1010.91 1010.67 1009.39 1008.58 1006.56 1004.34 1004.69 1005.32 1003.44 1002.45 1002.70 1001.75 1001.17 1000.65 1000.44 1000.04 999.80 999.89 999.43
1011.81 1011.59 1011.54 1011.60 1011.66 1011.70 1011.78 1010.03 1008.80 1009.27 1009.58 1009.86 1009.83 1008.75 1008.39 1008.29 1008.64 1008.96 1009.47 1009.90 1010.48 1010.93 1010.92 1010.67 1010.13 1009.82 1009.69 1008.56 1006.55 1003.12 1003.66 1003.51 1003.32 1002.70 1001.68 1001.78 1001.07 999.91 999.41 999.79 999.09 999.01 998.90 998.59
1010.98 1010.68 1010.62 1010.59 1010.50 1010.61 1009.99 1008.79 1008.14 1008.03 1008.55 1009.24 1009.36 1008.70 1008.06 1007.95 1007.97 1008.54 1008.86 1009.15 1009.40 1009.56 1009.77 1009.80 1009.40 1009.10 1008.57 1006.92 1005.09 1001.57 1002.87 1002.15 1001.93 1001.56 1001.21 1001.10 1000.04 999.45 998.65 998.69 998.33 998.19 997.86 997.61
1010.11 1009.71 1009.60 1009.28 1009.12 1008.92 1008.15 1007.65 1007.55 1007.84 1008.06 1008.70 1008.64 1008.44 1008.36 1007.83 1008.07 1008.62 1008.67 1009.02 1009.30 1009.53 1009.33 1009.35 1008.89 1008.57 1007.86 1006.19 1003.18 1002.34 1001.80 1001.71 1001.16 1000.70 1000.38 1000.07 999.09 998.60 998.16 997.86 997.49 997.30 997.02 996.80
1009.19 1008.84 1008.49 1007.72 1007.23 1007.16 1006.65 1006.83 1007.08 1007.26 1007.84 1007.87 1007.97 1007.88 1007.87 1007.77 1008.17 1008.67 1008.98 1009.11 1009.32 1009.18 1008.93 1008.61 1008.49 1007.58 1006.31 1003.65 1002.83 1002.32 1001.90 1001.49 1000.70 1000.17 999.89 999.54 999.04 997.99 997.40 997.11 996.55 996.43 996.06 996.09
1008.47 1008.49 1008.17 1007.46 1006.66 1006.45 1006.59 1006.67 1007.08 1007.23 1007.22 1007.06 1006.95 1006.94 1007.38 1007.70 1008.19 1008.70 1009.06 1009.02 1008.91 1008.60 1007.91 1007.57 1007.35 1005.83 1004.22 1003.31 1002.48 1001.86 1001.47 1001.25 1000.94 1000.46 999.77 999.30 998.72 998.10 997.25 996.37 995.46 995.18 995.08 995.14
1008.16 1008.16 1007.96 1007.23 1006.58 1006.30 1006.22 1006.08 1006.54 1006.70 1006.67 1006.27 1006.03 1006.32 1006.99 1007.41 1007.71 1007.91 1008.09 1008.30 1008.34 1008.02 1007.12 1007.22 1006.13 1005.11 1003.69 1002.86 1002.41 1001.95 1001.71 1001.63 1001.53 1001.30 1000.52 999.78 998.65 997.46 996.46 995.59 995.17 995.12 994.90 995.01
1008.02 1008.15 1007.90 1007.55 1006.56 1005.86 1005.60 1005.54 1005.62 1005.58 1005.16 1005.08 1005.22 1005.51 1006.02 1006.72 1006.74 1007.02 1007.64 1007.73 1007.81 1006.99 1006.57 1006.51 1005.47 1004.14 1003.76 1003.41 1002.98 1002.55 1002.26 1001.96 1001.47 1000.99 1000.01 999.13 997.58 996.44 996.11 996.24 995.94 995.98 995.95 996.23
1007.62 1007.52 1007.29 1006.55 1005.80 1005.21 1004.60 1004.26 1004.13 1004.11 1003.91 1004.01 1004.43 1005.24 1005.64 1006.22 1006.43 1006.93 1007.25 1007.50 1006.99 1006.24 1006.28 1005.75 1004.72 1004.41 1004.11 1003.96 1003.64 1003.22 1002.93 1002.45 1001.86 1001.20 1000.63 999.76 999.11 998.01 997.81 997.50 997.35 997.56 997.60 998.06
1007.02 1006.62 1005.98 1005.37 1004.49 1003.74 1002.84 1002.54 1002.40 1002.29 1002.51 1003.10 1003.87 1004.92 1005.33 1005.92 1006.47 1006.78 1007.02 1006.66 1006.39 1006.54 1006.21 1005.43 1005.01 1004.91 1004.82 1004.57 1004.31 1003.87 1003.33 1002.89 1002.44 1001.96 1001.44 1000.98 1000.37 999.89 999.61 999.39 999.40 999.33 999.78 1000.22
1006.32 1005.51 1004.50 1003.70 1002.90 1002.47 1002.10 1001.91 1002.03 1002.10 1002.29 1002.83 1003.86 1004.69 1005.09 1005.73 1006.07 1006.10 1006.12 1006.30 1006.09 1005.84 1005.63 1005.64 1005.60 1005.43 1005.18 1004.92 1004.71 1004.42 1004.09 1003.69 1003.23 1002.79 1002.63 1002.27 1001.90 1001.51 1001.41 1001.24 1001.21 1001.35 1001.70 1002.05
1005.25 1004.62 1003.74 1002.92 1002.74 1002.40 1002.13 1001.98 1002.19 1002.02 1002.45 1002.93 1003.66 1004.55 1004.96 1005.08 1005.30 1005.72 1005.54 1005.72 1005.54 1005.70 1005.75 1006.04 1005.98 1005.82 1005.67 1005.61 1005.39 1005.19 1004.87 1004.44 1004.16 1004.01 1003.76 1003.52 1003.27 1003.12 1003.15 1003.09 1003.31 1003.54 1003.69 1003.91
1004.02 1003.37 1002.90 1002.68 1002.54 1002.29 1002.18 1002.04 1002.16 1002.08 1002.51 1003.21 1003.57 1004.01 1004.10 1004.56 1004.80 1004.94 1004.77 1005.16 1005.46 1005.77 1006.08 1006.38 1006.35 1006.27 1006.24 1006.25 1006.06 1005.91 1005.65 1005.41 1005.27 1005.21 1005.06 1004.91 1004.87 1004.74 1004.66 1005.05 1005.72 1005.80 1006.12 1006.33
Wind_Speed
9 9 8 7 5 4 4 3 1 3 4 4 3 4 5 3 8 7 3 6 2 3 2 5 5 2 7 14 6 11 4 5 7 10 11 16 14 15 3 3 4 4 4 9
9 9 8 7 7 8 4 2 3 4 5 5 5 1 9 8 6 9 3 3 2 6 7 7 7 4 12 8 11 5 8 4 8 12 3 6 5 3 1 3 3 4 8 4
11 10 9 8 8 7 3 1 1 3 1 2 6 8 6 5 7 16 18 13 10 12 15 9 8 14 8 16 14 12 11 8 10 13 9 7 16 17 12 10 5 7 12 20
12 11 10 9 8 8 4 2 3 3 3 4 7 4 4 12 10 11 9 6 17 15 8 10 14 14 15 10 12 4 2 5 5 11 8 6 11 15 16 13 18 15 24 19
12 11 11 10 10 10 2 4 3 2 2 2 7 8 8 17 14 6 5 16 14 9 10 14 16 16 12 11 10 7 3 6 4 21 15 11 15 18 18 18 19 14 21 24
13 12 11 11 12 8 3 1 1 2 3 3 4 5 5 7 10 12 18 18 13 12 19 17 14 15 15 13 13 14 6 4 3 21 13 13 15 14 12 15 17 15 18 19
14 12 11 11 12 9 3 3 3 3 6 6 7 9 12 14 14 16 15 9 15 20 19 14 15 16 14 13 14 10 11 7 5 14 9 21 10 4 8 14 17 17 19 20
14 12 12 11 12 14 3 2 3 2 5 7 11 14 16 18 17 18 20 18 13 16 3 6 7 4 5 8 15 15 20 14 9 11 15 19 23 24 17 14 22 15 18 19
13 12 11 11 12 13 3 3 3 3 5 10 16 15 12 11 9 10 13 14 14 10 7 3 4 4 6 6 6 8 9 12 10 1 7 12 18 28 3 6 11 9 10 18
11 11 10 11 12 13 5 4 7 4 7 10 10 9 9 10 7 8 6 5 6 1 2 7 8 11 6 6 7 3 4 2 14 12 11 10 19 19 2 8 20 21 9 8
11 10 10 11 12 13 7 6 7 8 8 13 11 16 19 13 8 9 3 5 4 3 4 5 5 6 8 6 8 7 8 6 6 4 9 15 12 5 12 19 17 12 7 9
10 11 11 12 14 15 12 7 8 10 11 5 12 25 24 25 25 10 7 9 5 4 3 3 2 2 2 5 9 9 9 15 8 11 10 8 7 9 10 3 6 8 7 10
11 12 12 14 16 18 15 8 7 5 9 11 8 16 18 14 23 16 11 9 10 8 5 4 5 7 4 8 10 12 9 6 9 10 22 27 17 18 18 19 19 18 16 18
10 13 13 15 17 19 18 9 8 8 4 5 7 7 22 24 18 19 22 26 13 8 5 6 5 7 7 8 10 6 8 5 11 16 23 18 20 21 21 21 19 19 17 17
12 13 14 16 18 20 14 9 10 13 10 2 2 4 8 9 20 27 22 20 18 10 7 5 7 5 4 6 8 16 18 24 10 14 13 7 17 13 12 15 17 17 14 15
14 15 15 17 18 17 6 5 9 13 10 3 4 3 5 6 12 14 18 15 11 8 4 4 5 5 4 6 12 25 9 12 13 18 19 14 19 24 21 16 17 12 12 14
16 16 17 18 18 9 7 5 2 8 10 3 3 3 3 3 2 2 4 10 4 4 3 4 3 3 4 4 7 25 7 10 7 10 15 12 20 15 13 11 15 11 13 14
18 16 18 18 19 18 9 4 6 5 4 3 3 3 2 3 2 1 1 2 1 2 1 1 2 2 4 8 16 15 12 9 13 16 16 18 21 20 20 19 18 18 16 14
19 16 17 8 6 3 3 6 11 1 3 3 3 5 5 3 2 2 1 2 2 2 3 3 3 3 9 13 9 7 8 7 13 14 13 15 14 17 19 17 16 15 17 13
17 3 2 3 3 1 6 3 3 1 2 3 3 2 3 3 3 3 3 1 2 3 5 2 4 6 9 12 13 12 10 7 7 12 14 15 16 14 15 21 19 17 16 9
2 1 3 3 8 2 2 4 5 4 3 5 4 5 6 2 4 4 4 4 2 3 4 4 4 4 4 7 7 7 7 6 8 10 15 16 19 19 17 14 8 7 7 7
6 4 3 2 2 2 5 5 3 5 7 4 6 4 5 2 3 4 2 4 2 5 4 3 3 3 5 7 10 10 6 8 14 15 18 19 19 13 3 2 5 8 9 9
2 2 4 3 3 5 6 8 5 5 4 5 3 4 4 2 3 3 3 3 5 1 3 5 4 4 6 9 11 14 14 14 13 12 12 12 13 14 10 10 10 12 14 12
4 4 5 5 4 5 6 4 5 5 4 8 5 3 4 2 3 3 4 5 1 2 2 5 3 8 10 9 11 13 14 13 10 9 10 10 11 13 14 13 12 15 15 14
4 4 5 6 4 2 3 3 3 1 6 7 4 3 4 1 2 3 2 1 4 5 5 2 4 7 10 11 11 11 9 7 7 9 8 10 12 14 15 14 15 16 16 16
4 6 4 2 2 2 1 2 2 1 4 3 4 3 3 3 3 3 6 4 6 3 1 2 5 7 7 8 8 8 7 7 8 8 10 12 14 15 16 18 18 17 18 19
5 5 4 3 1 2 2 2 1 1 3 3 3 5 5 3 3 4 2 3 2 3 2 2 3 5 6 5 6 7 9 10 10 10 12 13 14 15 17 19 16 17 17 17
Wind_Direction
174 171 171 174 166 155 106 116 197 290 98 130 157 197 174 255 292 344 302 335 345 282 324 309 316 290 318 329 351 327 293 267 276 255 261 260 260 281 8 234 268 255 258 271
179 177 174 172 167 165 128 163 209 330 102 170 199 194 218 248 269 266 287 302 323 18 359 321 278 312 343 350 1 338 311 282 311 315 7 20 99 326 310 189 233 255 302 302
184 182 177 176 173 179 111 107 61 314 158 219 196 207 236 233 239 247 256 266 282 293 281 275 271 301 304 312 306 299 294 233 225 255 252 287 291 294 290 269 220 267 258 283
187 184 182 169 164 164 105 133 233 193 177 248 229 227 206 218 227 230 217 243 244 244 262 277 272 268 280 285 285 264 162 260 273 283 303 281 282 281 279 263 265 262 285 273
194 191 181 169 161 136 91 146 162 200 277 230 173 223 233 245 251 219 237 241 248 260 254 239 270 283 278 265 295 277 234 265 258 284 294 290 285 266 268 271 269 260 260 268
197 197 189 176 171 129 148 248 10 105 248 189 164 209 239 247 237 257 249 255 267 266 254 261 265 260 262 259 264 276 241 254 277 277 298 306 279 267 246 256 249 256 258 268
195 198 195 186 186 168 137 199 125 163 245 239 238 266 267 263 261 269 270 247 241 245 261 277 276 263 264 258 250 215 239 215 227 266 302 268 267 222 264 271 257 259 268 272
198 202 202 195 196 194 155 171 127 195 245 244 250 249 256 266 267 270 275 269 270 257 297 266 267 314 323 245 227 226 217 219 241 245 249 275 293 277 255 254 273 270 271 275
200 200 202 203 205 213 151 200 141 210 254 235 250 265 269 263 264 274 259 262 248 245 247 217 254 231 210 291 290 216 215 212 212 178 240 247 258 266 235 300 278 251 259 276
203 204 209 219 219 225 182 223 175 225 257 243 245 229 243 237 244 256 271 284 316 253 222 230 243 256 211 243 236 255 164 160 213 225 243 255 249 272 250 240 250 265 204 234
206 213 220 230 236 235 215 243 183 213 247 247 241 233 236 251 242 254 273 3 302 10 193 176 205 224 216 202 205 194 181 178 198 198 232 256 228 224 188 244 266 259 249 256
221 223 231 238 243 243 230 251 230 223 234 261 227 235 238 231 234 237 216 240 232 211 235 213 205 281 322 265 249 217 241 203 215 188 214 245 205 224 217 211 233 263 238 266
231 236 241 247 250 249 239 246 241 233 247 253 230 232 221 226 228 224 239 236 225 237 193 233 239 244 140 245 243 251 260 232 226 251 253 255 260 275 274 275 261 264 263 270
268 245 248 250 255 256 251 242 236 229 246 257 249 215 233 229 217 219 221 238 249 254 237 239 241 255 202 248 258 236 221 157 232 249 257 274 271 270 269 268 265 264 265 258
293 263 260 262 264 265 262 245 234 228 223 272 266 284 226 205 215 228 232 236 238 238 230 218 229 222 216 244 259 248 250 251 229 250 247 214 261 248 250 256 264 266 256 262
286 281 271 271 271 266 272 251 208 206 207 226 237 240 238 192 203 213 225 229 235 224 188 210 222 206 218 247 251 257 249 242 229 248 256 249 263 264 261 256 258 256 251 253
290 283 273 273 269 252 241 219 291 210 185 141 245 252 250 191 132 161 194 207 225 202 186 210 202 220 206 257 256 269 238 276 240 245 271 274 258 258 272 270 268 253 262 257
296 284 282 273 270 280 243 219 261 167 97 176 223 249 358 172 134 102 54 87 114 194 200 213 221 271 212 251 251 269 281 275 264 260 255 250 269 275 269 271 276 272 260 247
300 293 291 274 197 192 204 166 186 163 159 195 200 171 216 144 100 105 63 155 205 180 225 214 176 215 228 237 265 261 258 249 281 288 277 268 255 263 273 273 270 257 258 249
302 290 286 257 222 124 164 83 156 143 232 211 236 140 154 155 140 166 143 158 222 234 226 146 222 252 270 275 269 280 296 303 310 318 313 309 293 284 285 279 267 257 249 229
116 227 241 307 306 176 193 174 171 169 225 206 201 172 140 229 149 166 189 166 212 234 245 179 222 244 261 330 338 330 336 357 332 307 294 287 280 276 277 276 264 267 234 177
313 279 259 269 242 197 188 177 163 201 215 186 158 186 152 207 146 112 181 191 123 247 148 225 249 227 324 341 331 334 337 344 333 323 316 317 296 271 209 56 48 49 56 78
257 213 238 192 192 208 200 175 194 190 180 178 157 129 136 86 60 96 118 141 233 70 220 229 224 330 349 336 333 333 333 332 328 330 336 1 3 36 43 55 59 70 66 66
216 220 230 210 196 233 206 191 174 217 132 138 119 104 130 137 126 147 163 230 91 292 240 246 335 339 328 336 343 340 338 338 336 353 5 17 41 47 50 58 66 74 72 71
224 230 237 217 232 236 237 208 104 69 136 129 95 67 96 134 122 212 181 178 234 210 229 263 337 332 339 345 347 349 350 349 13 26 34 44 55 63 64 62 67 71 73 72
218 228 253 258 200 203 348 86 114 92 124 89 72 125 146 190 167 169 209 201 217 221 132 337 334 346 351 359 6 7 4 25 37 40 55 67 69 66 66 62 59 61 64 65
219 230 222 215 212 189 204 122 152 103 86 138 146 162 186 130 202 210 170 188 128 121 99 28 347 359 35 24 37 42 47 47 48 58 60 65 68 70 67 65 58 63 63 66